Showing default

TIANMU-1 08, 57400

Orbit data source: Space-Track

TIANMU-1 08, 57400 is a payload satellite owned by Hangtian Tianmu (CN) in SSO that was launched on Thu, 20 Jul 2023 UTC via a KUAIZHOU-1A launch vehicle from the Jiuquan Satellite Launch Center, China (JSC). Payload-class satellites include a variety of spacecraft equipped with specific instruments for various scientific and technological missions. These include communications satellites like Starlink; space stations such as the ISS; scientific satellites like the Hubble; Earth observation satellites from companies like Planet Labs, Umbra, and HawkEye 360; GPS; miniature CubeSats for education and research; and military/defense satellites.

Loading next visibility...
Identifier
57400, 2023-101B
Orbit
SSO
Country
Flag of CNCN / PRC
Related business
Manufacturer
Hangtian Tianmu
Mission
Operational Commercial Weather
Bus & Motor
TIANMU, Unknown motor
Mass
50 kg wet, ~50 kg dry
Launch date (UTC)
2023-07-20 (3 years ago)
Launch vehicle
KUAIZHOU-1A
Launch site
Jiuquan Satellite Launch Center, China (JSC)
Object type
Payload
Rocket body
Debris
Shape & HBR
Box, 0.8 m
Radar Cross Section
2.000 m², Large (>1 m²)

Expand to show TLE details & history
Last TLE update: 22 hours ago

TLE from 22 hours ago
0 TIANMU-1 08
1 57400U 23101B   26172.51458675  .00005094  00000-0  17870-3 0  9996
2 57400  97.2578 222.8538 0005687 104.7184 255.4688 15.29854432162300
Epoch: 2026-06-21T12:21Z
TLE epoch observation values (Epoch: 2026-06-21T12:21:00.295Z)
Latitude
0.00004°
Longitude
127.88881°
Altitude
480.335 km
Speed
7.625 km/s
True Right ascension
14h 51m 24s
True Declination
0° 00' 00"
Sunlit
Object was in full shadow at epoch
Visualization orbit readout
Latitude
Unknown
Longitude
Unknown
Altitude
Unknown
Speed
Unknown
Apparent Right ascension
Unknown
Apparent Declination
Unknown
Sunlit
N/A
Visualization observer readout
Local Sidereal Time
21:30:29
Azimuth
Unknown
Elevation
Unknown
Doppler factor
Unknown
Orbital elements
Apogee altitude
477.09 km
Perigee altitude
469.297 km
Semi-major axis
6,851.33 km
Eccentricity
0.00057
Inclination
97.2578°
RAAN
222.8538°
Arg. of periapsis
104.7184°
True anomaly
255.40573°
Mean anomaly
255.4688°
Eccentric anomaly
255.43726°
Mean motion
3.8272 °/min
Orbital period
94.06 mins
BSTAR
0.0001787
Loading maneuver chart data...
Computing Atmospheric mass density...
Loading historical data...
Loading historical data...
Loading historical data...
Loading historical data...
Loading historical data...
Loading historical data...
Loading historical data...
Other satellites on launch #101 in the year 2023 (2023-07-20 UTC)

Documentation

Showing up to 5 results
|